• Em Portugal
  • Lista de países
  • Para 7 dias
  • Temperatura da água
  • Mapas de satélite
  • Mapa do tempo
  • Widgets de tempo
  • user-avatar
    Iniciar Sessão

    Previsão horária em Otok

    Hoje, 20 Abril, Sexta-feira

    Tempo Temperatura Precipitação Vento Pressão Humidade
    00:00 +15°C° 0 mm 1 m/s 753 mmHg 85%
    01:00 +14°C° 0 mm 1 m/s 753 mmHg 87%
    02:00 +14°C° 0 mm 1 m/s 753 mmHg 88%
    03:00 +14°C° 0 mm 1 m/s 753 mmHg 89%
    04:00 +13°C° 0 mm 2 m/s 752 mmHg 90%
    05:00 +14°C° 0 mm 1 m/s 752 mmHg 86%
    06:00 +15°C° 0 mm 1 m/s 752 mmHg 82%
    07:00 +18°C° 0 mm 1 m/s 752 mmHg 78%
    08:00 +20°C° 0 mm 1 m/s 752 mmHg 69%
    09:00 +22°C° 0 mm 1 m/s 752 mmHg 61%
    10:00 +24°C° 0 mm 1 m/s 752 mmHg 53%
    11:00 +25°C° 0 mm 2 m/s 752 mmHg 49%
    12:00 +26°C° 0 mm 2 m/s 751 mmHg 45%
    13:00 +27°C° 0 mm 2 m/s 751 mmHg 42%
    14:00 +27°C° 0 mm 2 m/s 751 mmHg 42%
    15:00 +27°C° 0 mm 2 m/s 750 mmHg 43%
    16:00 +27°C° 0 mm 2 m/s 750 mmHg 43%
    17:00 +25°C° 0 mm 2 m/s 749 mmHg 51%
    18:00 +23°C° 0 mm 2 m/s 749 mmHg 59%
    19:00 +19°C° 0 mm 2 m/s 748 mmHg 66%
    20:00 +19°C° 0 mm 2 m/s 748 mmHg 67%
    21:00 +18°C° 0 mm 2 m/s 748 mmHg 68%
    22:00 +17°C° 0 mm 2 m/s 748 mmHg 69%
    23:00 +17°C° 0 mm 2 m/s 748 mmHg 69%

    Amanhã, 21 Abril, Sábado

    Tempo Temperatura Precipitação Vento Pressão Humidade
    00:00 +16°C° 0 mm 2 m/s 747 mmHg 69%
    01:00 +16°C° 0 mm 3 m/s 747 mmHg 70%
    02:00 +16°C° 0 mm 2 m/s 747 mmHg 72%
    03:00 +15°C° 0 mm 2 m/s 747 mmHg 75%
    04:00 +15°C° 0 mm 2 m/s 747 mmHg 77%
    05:00 +16°C° 0 mm 2 m/s 747 mmHg 75%
    06:00 +17°C° 0 mm 2 m/s 747 mmHg 74%
    07:00 +17°C° 0 mm 2 m/s 747 mmHg 72%
    08:00 +19°C° 0 mm 2 m/s 747 mmHg 66%
    09:00 +20°C° 0 mm 2 m/s 747 mmHg 61%
    10:00 +22°C° 0 mm 3 m/s 747 mmHg 55%
    11:00 +24°C° 0 mm 3 m/s 747 mmHg 53%
    12:00 +24°C° 0 mm 3 m/s 747 mmHg 50%
    13:00 +25°C° 0 mm 4 m/s 747 mmHg 48%
    14:00 +23°C° 0 mm 4 m/s 747 mmHg 48%
    15:00 +23°C° 0 mm 4 m/s 747 mmHg 48%
    16:00 +23°C° 0 mm 4 m/s 746 mmHg 48%
    17:00 +21°C° 0 mm 3 m/s 746 mmHg 54%
    18:00 +19°C° 0 mm 3 m/s 746 mmHg 60%
    19:00 +17°C° 0 mm 2 m/s 746 mmHg 66%
    20:00 +15°C° 0 mm 2 m/s 747 mmHg 68%
    21:00 +14°C° 0 mm 2 m/s 747 mmHg 70%
    22:00 +13°C° 0 mm 1 m/s 747 mmHg 72%
    23:00 +12°C° 0 mm 1 m/s 747 mmHg 73%

    Depois de amanhã, 22 Abril, Domingo

    Tempo Temperatura Precipitação Vento Pressão Humidade
    00:00 +11°C° 0 mm 1 m/s 747 mmHg 73%
    01:00 +11°C° 0 mm 1 m/s 747 mmHg 74%
    02:00 +10°C° 0 mm 1 m/s 747 mmHg 74%
    03:00 +10°C° 0 mm 1 m/s 747 mmHg 74%
    04:00 +9°C° 0 mm 1 m/s 747 mmHg 74%
    05:00 +11°C° 0 mm 1 m/s 747 mmHg 70%
    06:00 +12°C° 0 mm 1 m/s 747 mmHg 66%
    07:00 +13°C° 0 mm 1 m/s 747 mmHg 62%
    08:00 +15°C° 0 mm 1 m/s 746 mmHg 56%
    09:00 +18°C° 0 mm 1 m/s 746 mmHg 50%
    10:00 +21°C° 0 mm 1 m/s 746 mmHg 45%
    11:00 +22°C° 0 mm 1 m/s 746 mmHg 42%
    12:00 +23°C° 0 mm 1 m/s 745 mmHg 39%
    13:00 +24°C° 0 mm 1 m/s 745 mmHg 36%
    14:00 +24°C° 0 mm 1 m/s 744 mmHg 37%
    15:00 +24°C° 0 mm 1 m/s 744 mmHg 37%
    16:00 +24°C° 0 mm 1 m/s 743 mmHg 38%
    17:00 +22°C° 0 mm 1 m/s 743 mmHg 45%
    18:00 +20°C° 0 mm 1 m/s 743 mmHg 52%
    19:00 +17°C° 0 mm 2 m/s 743 mmHg 59%
    20:00 +16°C° 0 mm 2 m/s 743 mmHg 62%
    21:00 +15°C° 0 mm 2 m/s 743 mmHg 65%
    22:00 +14°C° 0 mm 2 m/s 743 mmHg 68%
    23:00 +14°C° 0 mm 2 m/s 742 mmHg 71%

    23 Abril, Segunda-feira

    Tempo Temperatura Precipitação Vento Pressão Humidade
    00:00 +14°C° 0 mm 2 m/s 742 mmHg 73%
    01:00 +14°C° 0 mm 2 m/s 742 mmHg 76%
    02:00 +14°C° 0 mm 2 m/s 741 mmHg 78%
    03:00 +14°C° 0 mm 2 m/s 741 mmHg 81%
    04:00 +14°C° 0 mm 2 m/s 740 mmHg 84%
    05:00 +14°C° 0,1 mm 3 m/s 740 mmHg 82%
    06:00 +17°C° 0,1 mm 3 m/s 740 mmHg 80%
    07:00 +18°C° 0,1 mm 3 m/s 740 mmHg 78%
    08:00 +18°C° 0,3 mm 4 m/s 740 mmHg 78%
    09:00 +18°C° 0,3 mm 4 m/s 740 mmHg 79%
    10:00 +19°C° 0,3 mm 5 m/s 740 mmHg 79%
    11:00 +19°C° 0,7 mm 5 m/s 739 mmHg 78%
    12:00 +19°C° 0,7 mm 5 m/s 739 mmHg 78%
    13:00 +19°C° 0,7 mm 6 m/s 739 mmHg 77%
    14:00 +19°C° 0,7 mm 6 m/s 739 mmHg 76%
    15:00 +19°C° 0,7 mm 6 m/s 739 mmHg 75%
    16:00 +17°C° 0,7 mm 7 m/s 739 mmHg 75%
    17:00 +16°C° 0,1 mm 6 m/s 740 mmHg 78%
    18:00 +14°C° 0,1 mm 5 m/s 740 mmHg 80%
    19:00 +13°C° 0,1 mm 4 m/s 741 mmHg 83%
    20:00 +12°C° 0 mm 4 m/s 741 mmHg 84%
    21:00 +11°C° 0 mm 4 m/s 742 mmHg 85%
    22:00 +10°C° 0 mm 3 m/s 742 mmHg 86%
    23:00 +9°C° 0 mm 3 m/s 742 mmHg 87%

    24 Abril, Terça-feira

    Tempo Temperatura Precipitação Vento Pressão Humidade
    00:00 +9°C° 0 mm 3 m/s 743 mmHg 88%
    01:00 +9°C° 0 mm 3 m/s 743 mmHg 88%
    02:00 +9°C° 0 mm 3 m/s 743 mmHg 88%
    03:00 +9°C° 0 mm 3 m/s 743 mmHg 88%
    04:00 +9°C° 0 mm 3 m/s 744 mmHg 88%
    05:00 +8°C° 0 mm 4 m/s 744 mmHg 84%
    06:00 +10°C° 0 mm 4 m/s 744 mmHg 80%
    07:00 +10°C° 0 mm 5 m/s 744 mmHg 76%
    08:00 +12°C° 0 mm 5 m/s 744 mmHg 71%
    09:00 +13°C° 0 mm 5 m/s 744 mmHg 65%
    10:00 +14°C° 0 mm 6 m/s 744 mmHg 59%
    11:00 +15°C° 0 mm 6 m/s 744 mmHg 59%
    12:00 +15°C° 0 mm 6 m/s 744 mmHg 59%
    13:00 +16°C° 0 mm 6 m/s 744 mmHg 58%
    14:00 +16°C° 0,1 mm 5 m/s 743 mmHg 61%
    15:00 +16°C° 0,1 mm 5 m/s 743 mmHg 64%
    16:00 +15°C° 0,1 mm 5 m/s 743 mmHg 67%
    17:00 +15°C° 0 mm 4 m/s 742 mmHg 72%
    18:00 +14°C° 0 mm 3 m/s 742 mmHg 77%
    19:00 +14°C° 0 mm 2 m/s 742 mmHg 82%
    20:00 +14°C° 0,1 mm 2 m/s 742 mmHg 84%
    21:00 +13°C° 0,1 mm 2 m/s 742 mmHg 86%
    22:00 +13°C° 0,1 mm 2 m/s 742 mmHg 88%
    23:00 +12°C° 0 mm 3 m/s 741 mmHg 87%

    25 Abril, Quarta-feira

    Tempo Temperatura Precipitação Vento Pressão Humidade
    00:00 +12°C° 0 mm 3 m/s 741 mmHg 85%
    01:00 +12°C° 0 mm 4 m/s 741 mmHg 84%
    02:00 +12°C° 0 mm 4 m/s 741 mmHg 84%
    03:00 +12°C° 0 mm 4 m/s 740 mmHg 84%
    04:00 +11°C° 0 mm 4 m/s 740 mmHg 84%
    05:00 +12°C° 0 mm 4 m/s 740 mmHg 81%
    06:00 +13°C° 0 mm 4 m/s 740 mmHg 79%
    07:00 +14°C° 0 mm 5 m/s 739 mmHg 76%
    08:00 +16°C° 0 mm 5 m/s 739 mmHg 71%
    09:00 +17°C° 0 mm 6 m/s 739 mmHg 66%
    10:00 +20°C° 0 mm 7 m/s 739 mmHg 61%
    11:00 +20°C° 0,4 mm 7 m/s 739 mmHg 61%
    12:00 +18°C° 0,4 mm 7 m/s 739 mmHg 62%
    13:00 +18°C° 0,4 mm 7 m/s 739 mmHg 63%
    14:00 +17°C° 0,5 mm 7 m/s 739 mmHg 67%
    15:00 +16°C° 0,5 mm 6 m/s 738 mmHg 71%
    16:00 +15°C° 0,5 mm 6 m/s 738 mmHg 75%
    17:00 +14°C° 0,1 mm 5 m/s 739 mmHg 78%
    18:00 +13°C° 0,1 mm 4 m/s 739 mmHg 80%
    19:00 +12°C° 0,1 mm 3 m/s 739 mmHg 82%
    20:00 +11°C° 0,2 mm 3 m/s 740 mmHg 83%
    21:00 +11°C° 0,2 mm 3 m/s 740 mmHg 85%
    22:00 +10°C° 0,2 mm 3 m/s 741 mmHg 86%
    23:00 +8°C° 0,3 mm 4 m/s 741 mmHg 87%
    Mostrar mais